Tracking 19280 objects as of 15-Nov-2018
HD Live streaming from Space Station
objects crossing your sky now

PORCUPINE 1

Track PORCUPINE 1 now!
10-day predictions
PORCUPINE 1 is classified as:


NORAD ID: 1272
Int'l Code: 1965-016H
Perigee: 905.5 km
Apogee: 936.6 km
Inclination: 70.1 °
Period: 103.3 minutes
Semi major axis: 7292 km
RCS: 0.248 m2 (medium)
Launch date: March 9, 1965
Source: United States (US)
Launch site: AIR FORCE WESTERN TEST RANGE (AFWTR)
aabbcc
Your satellite tracking list
Your tracking list is empty




NASA's NSSDC Master Catalog

Two Line Element Set (TLE):
1  1272U 65016H   18318.59131414 -.00000031  00000-0  16194-4 0  9999
2  1272  70.0813  15.4562 0021331 164.6537 195.5220 13.94199731730515
Source of the keplerian elements: AFSPC